OPS 7218 (TRANSIT 16) 1 02807U 67048A 24109.78124442 .00000264 00000-0 39543-3 0 9999 2 02807 89.6775 13.7687 0022189 61.8131 359.5499 13.50496324801375 OPS 4947 (TRANSIT 17) 1 02965U 67092A 24109.87255163 .00000289 00000-0 41224-3 0 9994 2 02965 89.2281 70.9994 0047365 184.0795 239.2747 13.53212097789439 OPS 7034 (TRANSIT 18) 1 3133U 68012A 24109.90154509 .00000301 00000-0 44052-3 0 9998 2 3133 90.0150 272.3245 0076226 116.2920 359.4655 13.51337582764277 NNSS 19 (TRANSIT 19) 1 04507U 70067A 24109.91002198 .00000364 00000-0 50250-3 0 9990 2 04507 89.9656 235.4546 0170901 239.1797 119.2441 13.51038394640814 NNSS 20 (TRANSIT 20) 1 06909U 73081A 24109.94857392 .00000557 00000-0 55946-3 0 9995 2 06909 89.8296 265.0286 0157665 85.5358 276.3798 13.71004894721000 TRANSAT 1 10457U 77106A 24109.92626315 .00000193 00000-0 29251-3 0 9993 2 10457 89.6492 100.0009 0026819 129.1953 287.8416 13.48796713286172 NOVA 1 1 12458U 81044A 24109.98949465 .00000159 00000-0 35571-3 0 9996 2 12458 89.8613 99.6842 0013340 332.4478 81.6933 13.23158748 72424 NOVA 3 1 15362U 84110A 24109.91084005 .00000147 00000-0 33032-3 0 9990 2 15362 90.1134 73.7633 0031483 187.8133 226.6200 13.22930182907281 OSCAR 30 1 15935U 85066A 24109.99190028 .00000298 00000-0 52454-3 0 9994 2 15935 90.1752 89.6741 0167690 344.9801 75.5308 13.35900036884123 OSCAR 24 1 15936U 85066B 24109.91109703 .00000264 00000-0 46369-3 0 9998 2 15936 90.1809 81.6106 0168780 351.3793 60.0726 13.35759060885951 POLAR BEAR 1 17070U 86088A 24109.85377437 .00000244 00000-0 24257-3 0 9998 2 17070 89.6054 208.2002 0040911 137.2344 339.5722 13.75035465876935 OSCAR 27 1 18361U 87080A 24109.87848775 .00000226 00000-0 35864-3 0 9991 2 18361 90.3601 57.2507 0104916 150.1630 210.5556 13.44714561794542 OSCAR 29 1 18362U 87080B 24109.91251403 .00000194 00000-0 30927-3 0 9992 2 18362 90.3614 57.6517 0105836 171.7153 253.2729 13.44282540794108 OSCAR 23 1 19070U 88033A 24110.17636854 .00000216 00000-0 41618-3 0 9999 2 19070 90.3201 357.8161 0191346 56.4132 57.7465 13.27640683742849 OSCAR 32 1 19071U 88033B 24109.92945248 .00000174 00000-0 33220-3 0 9994 2 19071 90.3203 357.9126 0189556 44.5695 72.7166 13.27814881742653 NOVA 2 1 19223U 88052A 24109.86695410 .00000132 00000-0 29310-3 0 9999 2 19223 89.9789 79.3317 0028939 232.9397 183.6164 13.22832860729771 OSCAR 25 1 19419U 88074A 24109.80239130 .00000196 00000-0 32107-3 0 9995 2 19419 90.0239 18.6383 0096407 165.2293 259.9270 13.42440550745505 OSCAR 31 1 19420U 88074B 24109.81574753 .00000172 00000-0 28017-3 0 9990 2 19420 90.0253 18.8960 0094842 159.3397 269.0819 13.42432622745610